CAPE
5 0 0 0 0 0 0 0 0 0 0 0 0 0 0 0 0 0 0 0 0 0 0 0 0 4 13 1 0 2 0 0 0 2 0 0 2 0 11 61 96 92 74 60
14 0 0 0 0 0 0 0 0 0 0 0 1 0 0 0 0 0 0 0 0 0 0 0 0 2 10 0 0 0 2 0 7 6 40 1 0 2 6 41 68 89 77 130
18 13 0 0 0 0 0 0 0 5 0 0 0 0 3 2 0 0 0 0 0 0 0 0 0 0 3 0 0 66 0 1 0 43 87 45 1 0 3 61 69 99 106 198
6 20 1 0 0 0 0 0 1 0 4 17 1 1 0 5 13 3 4 3 1 4 23 8 1 0 2 1 0 0 0 0 17 0 1 56 92 0 0 28 89 96 114 127
5 14 9 0 0 0 0 0 0 2 0 0 0 0 0 3 10 27 37 39 19 29 44 37 59 43 10 36 65 9 17 23 22 45 69 37 72 32 41 51 69 79 30 39
10 4 8 0 0 0 0 2 0 0 0 0 0 0 0 3 4 3 5 0 7 42 57 26 22 26 32 72 195 127 209 111 136 87 116 116 133 112 81 72 57 51 100 79
11 8 9 2 0 0 9 10 1 0 0 0 2 0 0 1 3 3 5 9 7 0 8 1 0 0 0 1 19 87 121 513 300 185 375 214 96 94 93 83 61 50 33 10
10 10 12 5 0 0 9 12 8 2 0 0 0 0 0 0 0 0 0 0 0 0 0 3 2 0 8 9 0 13 90 163 454 298 299 53 245 90 87 36 23 3 2 0
12 18 13 9 1 0 18 6 9 11 0 5 3 0 0 0 2 5 7 2 0 0 5 12 27 38 95 121 29 3 162 190 327 271 71 401 247 144 71 12 0 0 0 0
19 20 15 14 2 0 12 12 19 24 5 0 0 3 13 16 6 4 21 17 9 0 11 37 62 40 128 208 114 227 293 262 78 149 255 237 263 6 20 10 106 12 5 0
17 22 16 16 14 0 9 34 24 30 25 0 0 0 1 2 4 3 28 0 0 6 95 72 53 92 133 261 288 306 376 410 203 123 332 395 65 120 73 372 34 0 0 0
18 19 15 16 20 2 1 34 30 48 43 2 1 0 0 1 3 6 4 1 10 37 172 302 520 425 357 443 367 290 292 224 232 152 400 1070 14 212 66 150 144 32 12 56
22 20 26 10 16 18 3 61 52 44 19 0 0 1 2 0 0 0 0 2 18 23 48 117 235 283 560 442 429 355 357 285 216 368 198 105 245 352 100 84 93 166 100 173
25 20 27 17 12 26 9 73 63 32 36 11 8 0 2 1 4 3 1 0 13 10 30 32 50 165 354 427 413 387 157 331 249 193 244 342 301 290 405 196 378 330 274 274
23 25 26 21 30 39 14 22 29 45 29 19 1 0 10 38 44 17 10 3 0 10 15 22 77 90 75 22 56 169 257 338 138 182 266 663 753 639 514 750 677 679 634 523
22 25 24 18 40 14 35 24 46 22 88 19 16 6 25 22 44 64 20 23 12 7 27 20 16 18 77 33 36 138 76 431 728 272 175 383 1012 840 809 874 800 733 626 587
25 27 20 31 38 37 43 28 15 0 6 9 26 24 15 1 7 35 31 43 13 18 15 32 51 116 100 56 11 13 4 25 662 451 438 945 1178 887 1065 971 806 525 526 562
17 15 12 27 23 15 11 10 2 0 4 11 66 13 2 23 20 65 46 20 14 64 42 82 172 107 75 24 0 0 4 0 65 898 891 834 996 1074 1020 954 837 554 558 585
8 2 8 30 40 46 67 14 0 0 0 74 89 29 63 3 62 116 40 91 89 135 183 113 93 31 31 0 0 10 63 16 445 849 835 1157 1201 1146 1081 909 652 486 541 740
2 11 36 45 63 2 9 38 79 155 106 118 47 41 33 23 4 58 34 161 206 173 225 165 45 5 15 37 23 20 134 270 118 237 875 977 1047 978 768 584 581 550 757 652
35 41 18 53 0 71 79 53 102 85 54 77 54 42 50 65 93 70 68 13 27 106 225 181 138 74 187 125 32 31 63 86 204 239 238 880 612 633 583 623 689 554 466 410
32 27 23 18 68 71 23 59 107 89 59 96 85 49 0 5 28 115 188 111 106 121 305 107 65 198 267 343 337 259 237 183 106 139 29 167 781 350 548 458 355 313 397 484
53 56 52 45 26 58 15 35 65 82 91 43 64 71 93 155 129 72 170 272 181 330 208 138 231 232 291 401 439 425 363 261 83 51 40 20 95 697 560 477 398 416 450 484
51 48 21 15 6 27 25 124 139 141 126 64 66 96 214 291 209 202 225 165 148 73 94 76 92 111 62 319 395 491 368 139 47 37 74 23 29 477 641 518 559 553 653 484
39 42 99 14 37 32 7 98 63 162 67 37 19 40 192 174 200 243 146 93 73 161 95 31 10 60 47 205 354 564 487 200 111 96 60 34 157 813 622 830 716 776 960 829
50 28 21 14 8 24 40 112 77 41 12 5 12 9 49 108 166 157 90 60 100 48 130 63 59 72 15 271 324 417 667 604 324 122 35 39 64 484 884 826 752 982 1130 1244
32 7 29 19 31 23 18 22 35 12 55 35 44 26 48 160 115 128 278 182 103 74 113 225 90 99 99 58 48 197 441 517 681 667 244 56 128 146 426 287 124 189 537 1748
CIN
-1 -0 -0 -0 -0 -0 -0 -0 -0 -0 -0 -0 -0 -0 -0 -0 -0 -0 -0 -0 -0 -0 -0 -0 -0 -0 -0 -2 -0 -0 -0 -0 -0 -0 -0 -0 -0 -0 -0 -0 -0 -0 -0 -1
-0 -0 -0 -0 -0 -0 -0 -0 -0 -0 -0 -0 -0 -0 -0 -0 -0 -0 -0 -0 -0 -0 -0 -0 -0 -0 -3 -0 -0 -0 -0 -0 -0 -1 -0 -0 -0 -0 -0 -0 -0 -0 -2 -0
-0 -0 -0 -0 -0 -0 -0 -0 -0 -0 -0 -0 -0 -0 -0 -0 -0 -0 -0 -0 -0 -0 -0 -0 -0 -0 -2 -0 -0 -155 -0 -0 -0 -0 -0 -1 -0 -0 -0 -0 -0 -0 -0 -10
-0 -0 -0 -0 -0 -0 -0 -0 -0 -0 -0 -0 -0 -0 -0 -0 -0 -0 -0 -0 -0 -0 -0 -0 -0 -0 -0 -0 -0 -0 -0 -0 -0 -0 -0 -4 -1 -0 -0 -0 -0 -0 -5 -0
-2 -0 -0 -0 -0 -0 -0 -0 -0 -0 -0 -0 -0 -0 -0 -0 -0 -0 -0 -0 -0 -0 -0 -0 -0 -0 -0 -0 -0 -30 -4 -0 -0 -0 -0 -1 -1 -1 -0 -0 -1 -1 -4 -17
-2 -0 -0 -0 -0 -0 -0 -0 -0 -0 -0 -0 -0 -0 -0 -0 -0 -0 -0 -0 -0 -0 -0 -3 -8 -0 -1 -0 -0 -0 -19 -0 -0 -0 -0 -5 -0 -0 -2 -1 -1 -2 -1 -1
-3 -2 -2 -0 -0 -0 -0 -0 -0 -0 -0 -0 -0 -0 -0 -0 -0 -0 -0 -0 -0 -0 -0 -0 -0 -0 -0 -0 -44 -50 -56 -15 -0 -0 -1 -0 -1 -1 -2 -1 -2 -0 -0 -6
-2 -3 -2 -0 -0 -0 -0 -0 -0 -0 -0 -0 -0 -0 -0 -0 -0 -0 -0 -0 -0 -0 -0 -0 -0 -0 -0 -0 -0 -56 -28 -58 -0 -0 -2 -81 -2 -13 -14 -0 -0 -1 -0 -0
-5 -2 -2 -0 -0 -0 -0 -0 -0 -0 -0 -0 -0 -0 -0 -0 -0 -0 -0 -0 -0 -0 -0 -0 -0 -0 -0 -0 -3 -2 -0 -23 -11 -1 -12 -0 -12 -2 -3 -9 -0 -0 -0 -0
-5 -4 -3 -2 -0 -0 -2 -0 -0 -0 -0 -0 -0 -0 -0 -0 -0 -0 -0 -0 -0 -0 -0 -0 -0 -0 -0 -0 -0 -0 -2 -0 -17 -11 -0 -7 -27 -44 -24 -9 -3 -1 -45 -0
-6 -5 -4 -4 -3 -0 -3 -0 -0 -0 -0 -0 -0 -0 -0 -0 -0 -0 -0 -0 -0 -0 -0 -0 -0 -0 -0 -0 -0 -1 -2 -0 -0 -27 -12 -0 -54 -21 -6 -8 -24 -0 -0 -0
-6 -6 -5 -3 -2 -1 -0 -0 -0 -0 -0 -0 -0 -0 -0 -0 -0 -0 -0 -0 -0 -1 -0 -0 -0 -0 -2 -0 -6 -22 -0 -5 -0 -1 -0 -13 -133 -1 -17 -17 -18 -35 -37 -27
-8 -7 -4 -5 -2 -1 -0 -0 -0 -0 -0 -0 -0 -0 -0 -0 -0 -0 -0 -0 -0 -0 -6 -0 -0 -0 -0 -1 -16 -0 -1 -3 -0 -5 -5 -11 -2 -12 -20 -23 -13 -28 -24 -32
-7 -7 -4 -6 -6 -2 -11 -0 -0 -0 -0 -0 -0 -0 -0 -0 -0 -0 -0 -0 -0 -1 -0 -0 -0 -0 -0 -0 -0 -0 -119 -21 -0 -6 -31 -29 -43 -2 -11 -17 -16 -25 -27 -32
-6 -7 -5 -4 -1 -1 -6 -0 -0 -0 -0 -0 -0 -0 -0 -0 -0 -0 -0 -0 -0 -0 -0 -0 -0 -0 -1 -1 -2 -5 -19 -1 -0 -0 -27 -34 -11 -10 -19 -24 -25 -35 -33 -31
-5 -10 -4 -3 -0 -14 -0 -0 -1 -0 -15 -0 -0 -4 -0 -0 -0 -0 -0 -0 -1 -0 -0 -1 -1 -3 -0 -0 -0 -52 -44 -62 -2 -0 -12 -41 -45 -30 -30 -28 -38 -34 -33 -38
-6 -5 -5 -1 -1 -0 -0 -0 -1 -5 -12 -0 -0 -0 -2 -6 -4 -0 -0 -0 -2 -0 -1 -0 -0 -19 -21 -0 -0 -68 -131 -147 -9 -9 -30 -29 -22 -9 -18 -31 -47 -88 -45 -46
-8 -10 -4 -0 -2 -17 -0 -0 -10 -0 -0 -0 -0 -0 -4 -5 -4 -0 -0 -0 -0 -0 -0 -0 -0 -0 -0 -0 -0 -0 -109 -0 -57 -11 -10 -0 -1 -12 -24 -42 -56 -42 -43 -36
-9 -17 -21 -1 -1 -0 -0 -36 -10 -0 -0 -0 -0 -0 -0 -30 -3 -1 -3 -0 -0 -0 -0 -0 -0 -0 -0 -0 -0 -63 -6 -17 -6 -0 -1 -0 -4 -14 -24 -41 -48 -36 -39 -14
-24 -9 -0 -0 -0 -27 -28 -2 -0 -0 -0 -1 -1 -0 -0 -0 -7 -2 -0 -0 -0 -0 -0 -0 -0 -0 -9 -0 -0 -3 -5 -0 -31 -3 -0 -0 -0 -4 -27 -34 -35 -27 -14 -4
-0 -0 -0 -0 -0 -0 -0 -9 -0 -0 -0 -0 -0 -2 -2 -0 -0 -0 -0 -0 -0 -0 -0 -0 -0 -0 -4 -7 -10 -3 -16 -17 -5 -0 -4 -0 -2 -1 -15 -17 -11 -7 -29 -9
-1 -0 -0 -3 -0 -0 -8 -0 -0 -0 -0 -0 -0 -0 -3 -21 -10 -0 -0 -0 -0 -0 -0 -0 -0 -0 -4 -1 -0 -0 -0 -0 -15 -11 -29 -39 -12 -1 -0 -0 -18 -24 -6 -0
-0 -0 -0 -0 -0 -0 -0 -0 -0 -0 -0 -1 -0 -0 -0 -0 -0 -0 -0 -0 -0 -2 -0 -0 -0 -0 -4 -0 -0 -0 -0 -0 -30 -44 -43 -50 -35 -28 -0 -0 -3 -17 -2 -3
-0 -0 -0 -0 -1 -0 -0 -1 -0 -0 -0 -7 -0 -0 -0 -0 -0 -0 -1 -0 -0 -0 -0 -0 -3 -0 -2 -0 -0 -0 -0 -4 -16 -21 -18 -41 -73 -4 -0 -0 -0 -0 -0 -11
-0 -0 -0 -0 -0 -0 -1 -0 -0 -0 -0 -0 -0 -0 -0 -0 -0 -1 -0 -0 -0 -0 -0 -1 -15 -0 -0 -0 -0 -0 -0 -0 -3 -10 -0 -6 -3 -0 -0 -0 -0 -0 -3 -14
-0 -0 -0 -0 -0 -0 -2 -0 -0 -10 -1 -12 -0 -0 -0 -0 -0 -0 -0 -1 -0 -0 -1 -15 -12 -4 -21 -0 -0 -0 -0 -5 -0 -0 -3 -0 -20 -2 -13 -29 -21 -2 -2 -11
-0 -0 -0 -0 -0 -0 -0 -0 -0 -24 -2 -0 -0 -0 -0 -0 -0 -0 -0 -0 -7 -21 -21 -4 -20 -21 -22 -17 -21 -0 -0 -1 -2 -0 -21 -14 -7 -7 -8 -37 -136 -111 -33 -0
Wind_Speed
13 14 17 19 22 29 14 7 5 7 5 9 10 12 9 4 9 10 13 8 14 12 11 10 13 17 16 10 12 13 17 11 13 19 16 19 18 18 16 10 13 10 10 6
13 14 16 17 18 16 10 7 7 7 7 8 8 10 8 6 12 9 13 14 13 13 12 9 16 17 1 3 6 2 10 13 14 18 18 14 15 15 18 19 15 13 8 9
16 15 15 16 17 14 7 7 5 7 8 10 11 13 8 11 8 12 7 11 13 11 12 14 11 12 5 2 8 11 10 16 16 14 15 16 23 22 21 18 12 12 12 13
16 15 16 18 19 20 7 5 3 7 6 1 7 9 12 10 12 11 7 9 12 12 14 16 19 19 17 10 2 10 13 18 17 22 7 21 17 20 23 22 16 13 11 11
14 15 15 18 22 26 7 6 5 5 11 11 10 11 13 15 14 12 11 13 13 9 10 13 16 11 19 11 9 9 15 16 20 24 24 15 18 18 19 18 14 17 13 13
14 14 13 16 19 19 6 5 7 6 7 10 11 11 11 9 7 9 11 15 15 12 10 11 16 17 16 11 11 7 14 13 17 20 21 17 18 16 16 12 12 14 15 8
12 13 13 13 14 14 9 7 9 8 11 11 8 12 4 11 11 12 13 6 10 11 13 12 16 19 20 22 20 18 14 13 12 17 15 20 14 17 14 13 11 12 10 11
10 10 11 11 11 13 7 6 7 6 9 11 9 12 13 14 13 15 16 17 13 12 14 13 17 15 21 24 25 22 19 11 9 14 8 14 19 7 13 8 9 11 11 6
11 12 11 9 9 10 9 4 4 7 7 2 9 11 10 10 11 11 13 10 9 9 9 12 17 15 17 20 21 22 19 15 10 9 15 20 25 16 10 4 10 11 9 10
11 11 11 11 9 8 8 5 6 6 9 14 9 9 9 9 8 9 10 5 8 13 10 13 14 14 18 16 20 14 14 14 16 17 16 25 16 11 6 9 3 10 10 9
10 10 10 11 9 7 7 5 6 7 7 15 18 16 15 10 8 10 8 8 13 10 12 11 10 10 14 16 18 19 18 14 15 19 21 17 17 22 12 9 8 7 3 7
10 9 9 10 11 7 5 6 2 5 5 13 21 20 19 17 16 12 11 12 8 3 4 3 6 8 11 11 15 12 14 18 15 13 15 10 11 13 7 6 8 6 5 6
8 8 10 9 10 10 7 6 5 6 8 14 15 13 14 17 18 15 11 8 7 8 7 6 4 7 9 8 11 10 29 4 11 8 3 2 15 6 11 5 9 6 5 8
9 8 10 9 11 12 9 6 4 3 5 7 4 5 4 8 9 15 13 18 7 6 5 6 5 6 4 8 8 10 3 13 14 15 5 4 19 3 8 7 8 7 5 5
9 8 9 10 12 11 10 9 6 5 6 8 12 19 13 10 7 10 15 13 13 7 6 5 6 4 6 10 10 8 12 14 11 10 12 5 14 8 7 9 8 8 9 7
8 7 9 10 11 8 5 4 3 4 2 2 6 7 7 3 9 8 11 11 5 5 5 5 5 8 5 6 7 15 17 10 11 3 12 7 18 13 10 9 8 9 8 7
8 7 9 10 9 8 5 3 2 4 3 2 5 3 4 5 6 2 5 10 5 4 4 9 12 5 4 5 12 13 13 25 8 4 6 7 19 11 12 13 10 6 7 8
9 9 10 10 10 10 8 6 17 5 2 5 5 4 3 3 1 2 3 4 4 5 5 4 7 5 5 9 14 11 1 23 29 3 8 8 8 9 13 13 11 10 9 9
9 11 12 6 6 4 2 6 13 8 5 5 5 4 3 3 4 3 3 4 5 3 5 6 4 4 8 13 15 17 15 17 10 6 6 8 11 14 13 13 11 9 10 11
9 7 4 4 3 4 2 2 4 6 6 6 9 7 4 3 2 3 3 1 4 4 6 5 4 8 16 15 16 14 10 10 11 2 8 8 11 11 10 9 10 9 11 10
4 4 1 1 5 4 3 4 6 6 6 6 4 3 5 2 5 2 2 1 4 5 5 5 3 3 2 10 18 14 13 10 10 9 8 6 5 7 9 10 9 9 10 9
4 6 6 4 4 3 4 5 5 7 1 2 1 1 2 5 4 5 6 5 6 6 7 3 4 2 8 9 7 6 9 11 11 10 5 1 6 4 7 8 8 9 9 10
4 4 5 3 3 3 5 6 5 3 2 3 3 3 4 5 6 5 5 7 3 4 4 4 4 7 9 11 10 10 7 12 13 10 6 4 2 7 7 9 9 10 10 10
3 4 3 4 5 6 3 6 3 3 2 2 5 4 4 3 5 5 6 5 3 4 2 2 2 12 14 13 11 11 9 10 15 14 11 9 1 12 7 9 10 11 11 11
3 3 4 6 6 5 2 3 4 2 3 6 6 4 4 4 5 4 5 3 2 5 4 5 7 9 12 11 11 11 8 6 11 12 11 12 16 14 13 10 9 9 10 11
4 5 7 6 6 7 7 6 2 4 4 1 2 4 3 5 4 5 4 4 4 3 3 2 7 9 11 10 10 9 8 5 4 8 8 9 13 11 9 8 6 7 10 11
4 4 7 8 9 4 5 5 3 5 1 2 2 3 4 4 4 3 3 4 4 2 4 5 9 10 9 6 7 9 9 5 2 6 7 8 6 6 9 9 2 5 11 11
Wind_Direction
335 345 343 341 341 336 314 282 258 127 195 233 224 252 304 13 287 197 259 261 292 291 286 277 274 256 226 203 228 219 214 248 240 208 200 227 228 217 238 243 227 280 309 313
334 338 340 337 342 359 315 284 298 147 235 259 236 215 272 246 258 246 255 255 251 263 270 253 266 258 169 64 237 248 243 229 243 244 194 220 242 244 224 228 237 244 251 248
351 332 334 333 334 345 306 277 270 170 208 266 284 299 263 250 182 285 294 286 285 272 255 257 275 270 265 87 259 15 311 262 236 236 213 201 206 233 250 249 235 243 238 130
344 339 349 342 333 330 288 252 4 9 281 146 304 304 285 292 259 190 263 261 249 261 256 245 240 243 267 232 207 253 251 259 260 261 233 263 251 201 224 231 255 260 3 258
336 340 345 343 339 328 254 308 342 1 286 281 269 261 258 260 257 266 268 241 259 315 251 272 289 253 244 256 259 253 239 245 255 258 268 214 263 203 210 218 245 264 254 200
337 340 344 347 342 333 309 32 270 267 290 267 257 260 272 263 318 299 278 294 296 284 272 333 313 314 300 285 280 261 292 267 237 246 250 239 235 246 208 199 221 247 257 248
339 344 347 346 342 341 322 352 299 274 275 269 271 295 270 275 274 278 289 280 277 283 306 297 282 267 260 259 254 251 241 259 262 252 240 254 227 229 245 219 225 231 242 276
334 330 333 347 338 335 299 315 308 313 280 293 294 273 266 264 263 242 252 262 267 272 266 268 263 243 245 237 229 237 237 236 253 249 213 235 259 159 221 237 247 269 251 249
318 322 328 333 339 330 293 272 276 270 292 327 1 302 276 283 276 264 242 235 250 282 261 258 251 260 246 221 223 226 228 184 255 249 220 214 252 197 172 260 247 233 199 216
310 321 326 331 331 331 306 272 253 275 280 271 288 266 316 340 311 289 306 261 253 222 246 249 250 252 267 257 210 178 205 196 200 243 258 221 87 53 166 209 70 172 169 202
305 313 322 329 327 329 303 285 252 276 296 297 295 289 279 270 234 274 357 298 211 259 238 258 269 279 244 258 251 185 193 192 191 208 247 250 106 178 203 95 111 80 107 169
303 311 323 328 335 314 311 278 16 296 264 291 307 292 284 277 280 285 288 284 319 336 306 311 306 249 290 254 267 138 246 199 192 194 234 344 99 251 166 114 118 126 137 113
299 301 310 317 324 318 275 286 308 274 272 274 249 245 237 223 232 254 263 266 286 286 10 300 283 274 318 270 267 188 229 212 208 161 163 324 263 141 146 135 129 138 156 143
292 297 312 316 311 306 280 264 280 282 288 280 324 114 209 216 219 216 232 250 267 334 320 296 283 279 314 299 307 326 296 291 192 195 187 31 285 216 138 148 121 140 102 141
292 300 308 314 309 304 272 259 263 248 266 322 323 307 283 221 210 243 217 230 238 231 276 262 256 258 297 282 303 237 221 255 211 185 184 139 284 188 163 139 157 152 144 138
290 297 304 312 314 307 265 251 196 243 79 310 289 332 221 358 288 246 226 213 226 236 215 247 252 248 250 279 268 263 301 124 281 138 154 176 267 215 159 149 164 154 150 140
296 300 301 307 303 280 246 355 12 71 83 239 266 243 82 310 314 230 197 193 167 232 234 251 261 173 176 258 263 273 349 314 316 226 141 229 248 179 156 160 157 149 134 139
298 299 294 294 301 278 258 253 180 172 245 226 254 244 113 282 310 243 198 186 154 215 242 276 240 251 229 260 263 263 8 298 288 198 209 229 162 151 165 155 147 164 148 153
296 290 284 270 218 228 113 108 143 189 224 284 254 285 349 216 122 326 236 206 211 228 235 230 216 216 228 248 261 262 191 250 314 196 293 146 170 158 160 152 162 160 157 160
291 265 213 232 112 135 152 96 188 200 209 232 267 289 278 284 104 178 259 277 245 230 219 138 222 252 256 257 249 252 267 244 303 189 169 161 151 146 149 151 164 161 154 163
225 235 283 339 155 194 234 224 216 176 228 210 237 311 291 308 274 183 190 309 282 259 172 215 221 259 280 337 228 244 256 263 259 258 327 22 95 141 165 161 159 155 159 173
327 301 264 250 223 168 245 238 197 217 245 145 263 61 238 260 229 262 177 238 188 255 160 215 250 36 333 331 318 270 248 256 230 229 187 149 322 170 176 157 164 151 161 159
277 232 241 193 253 255 237 230 176 196 181 180 180 241 233 221 224 246 236 241 236 153 206 219 42 342 335 333 322 298 264 252 224 217 204 174 247 311 202 173 166 154 158 165
266 228 256 228 235 244 301 354 33 343 296 96 208 250 252 223 219 238 254 233 234 244 249 65 289 351 331 334 326 316 292 227 206 198 201 174 253 253 206 187 177 167 163 164
268 251 244 241 258 242 230 250 286 66 322 359 327 285 247 263 257 238 278 254 255 25 5 12 311 326 323 325 330 335 306 237 185 185 188 188 197 214 201 201 186 182 169 176
232 237 245 252 272 311 341 3 327 29 26 321 211 248 263 244 249 244 258 338 36 39 47 276 307 312 306 325 346 347 326 280 212 177 196 185 192 191 203 155 183 217 195 198
246 254 262 249 268 272 288 290 37 133 171 279 289 260 235 287 249 253 11 39 126 212 234 226 252 270 287 313 326 350 349 7 2 125 168 164 180 164 180 167 267 275 270 221